Location: Dal�� Lhota
(48.7500°N, 14.0167°E)
Time: 01:10:59
(UTC+00:00)

Transit 2A - Pass Details

Date: 02 August 2021
Orbit: 594 x 964 km, 66.7° (Epoch: 27 September)

Event Time Altitude Azimuth Distance (km) Brightness Sun altitude
Rises 08:08:06 0° 288° (WNW) 2,944 8.6 41.9°
Reaches altitude 10° 08:11:47 10° 319° (NW) 2,107 8.0 42.5°
Maximum altitude 08:13:44 12° 343° (NNW) 1,997 8.0 42.8°
Drops below altitude 10° 08:15:46 10° 8° (N) 2,198 8.3 43.1°
Sets 08:19:48 0° 38° (NE) 3,222 9.3 43.7°
